RBSP A

Last updated on Fri Nov 22 2019 04:20:15 GMT+0000 (Coordinated Universal Time)

1 38752U 12046A 19324.01299136 .00002510 00000-0 48270-3 0 9990 2 38752 9.7828 126.9150 6930602 243.4004 32.0911 2.74090871 70784
UTC large
Height (km)
Speed (km/s)
/
Latitude / Longitude
Inclination (degrees)
Orbital Period (minutes)
Azimuth
Elevation
Range (km)
Doppler Factor

Next 0 passes for location: London (51.5072 / 0.1276)

Sorry there are no passes over London.